Location: Lalanga
(4.5882°N, 32.9072°E)
Time: 18:04:14
(UTC+00:00)

SL-4 R/B - Pass Details

Date: 24 January 2020
Orbit: 428 x 666 km, 51.6° (Epoch: 23 February)

Event Time Altitude Azimuth Distance (km) Brightness Sun altitude
Rises 16:19:02 0° 178° (S) 2,990 6.0 -5.9°
Reaches altitude 10° 16:23:02 10° 146° (SE) 2,080 4.8 -6.8°
Maximum altitude 16:24:40 12° 126° (SE) 1,971 4.5 -7.2°
Drops below altitude 10° 16:26:18 10° 106° (ESE) 2,070 4.5 -7.6°
Enters shadow 16:27:29 - 93° (E) 2,262 4.6 -7.9°
